Home   Weather   Xiamen   Past weeks

Flag for China Past Weather in Xiamen, Fujian, China — Yesterday and Last 2 Weeks

Now
64 °F

Sprinkles. Cloudy.


Feels Like: 64 °F
Forecast: 62 / 73 °F
Wind: 6 mph from East

Location: Xiamen Airport

Current Time: Apr 27, 2017 at 1:24:16 pm

Latest Report: Apr 27, 2017 at 12:00 pm


Visibility: 4 mi

Pressure: 29.98 "Hg

Humidity: 88%

Dew Point: 61 °F

Location of XiamenLocation

Past Weather in Xiamen — Graph

°F

Xiamen Temperature Yesterday

Maximum temperature yesterday: 86 °F (at 1:00 pm)
Minimum temperature yesterday: 66 °F (at 10:00 pm)
Average temperature yesterday: 76 °F

High & Low Weather Summary for the Past Weeks

 TemperatureHumidityPressure
High90 °F (Apr 17, 1:00 pm)100% (Apr 19, 2:00 am)30.12 "Hg (Apr 19, 2:00 am)
Low61 °F (Apr 12, 7:00 pm)32% (Apr 13, 10:00 am)29.71 "Hg (Apr 17, 3:00 pm)
Average73 °F69%29.91 "Hg
* Reported Apr 12 11:00 am — Apr 27 11:00 am, Xiamen, Weather by CustomWeather, © 2017

Note: Actual official high and low records may vary slightly from our data, if they occured in-between our weather recording intervals... More about our weather records

Advertising

Xiamen Weather History for the Previous 24 Hours

Scroll right to see more
 ConditionsComfort  
Time TempWeatherWind HumidityBarometerVisibility
11:00 am
Thu, Apr 27
63 °FRain showers. Mostly cloudy.8 mph94%30.01 "Hg3 mi
10:00 am64 °FLight rain. Mostly cloudy.8 mph83%29.98 "HgN/A
9:00 am64 °FLight rain. Mostly cloudy.13 mph83%29.98 "HgN/A
8:00 am64 °FLight rain. Mostly cloudy.13 mph83%29.98 "HgN/A
7:00 am64 °FLight rain. Mostly cloudy.6 mph88%29.95 "Hg4 mi
6:00 am64 °FLight rain. Mostly cloudy.6 mph88%29.92 "HgN/A
5:00 am66 °FMostly cloudy.10 mph78%29.89 "HgN/A
4:00 am64 °FOvercast.6 mph83%29.89 "HgN/A
3:00 am64 °FLight rain. Mostly cloudy.10 mph88%29.89 "HgN/A
2:00 am66 °FLight rain. Mostly cloudy.17 mph83%29.92 "HgN/A
1:00 am66 °FLight rain. Mostly cloudy.15 mph83%29.95 "HgN/A
12:00 am66 °FSprinkles. Partly cloudy.15 mph83%29.95 "HgN/A
11:00 pm
Wed, Apr 26
66 °FSprinkles. Partly cloudy.15 mph88%29.95 "HgN/A
10:00 pm66 °FRain showers. Partly cloudy.17 mph88%29.95 "Hg5 mi
9:00 pm68 °FThunderstorms. Passing clouds.17 mph88%29.92 "Hg4 mi
8:00 pm70 °FRain showers. Fog.20 mph88%29.86 "Hg3 mi
7:00 pm77 °FSprinkles. Fog.1 mph83%29.80 "Hg3 mi
6:00 pm81 °FPassing clouds.3 mph70%29.77 "Hg4 mi
5:00 pm84 °FClear.6 mph62%29.77 "Hg4 mi
4:00 pm84 °FClear.8 mph62%29.74 "Hg4 mi
3:00 pm86 °FClear.10 mph59%29.77 "Hg4 mi
2:00 pm86 °FClear.10 mph59%29.80 "Hg5 mi
1:00 pm86 °FPassing clouds.8 mph59%29.83 "Hg4 mi
Weather by CustomWeather, © 2017

See weather overviewHow to use our weather pages